Weather History for Kingsville NAS, TX

Change the Weather History Date:

Wednesday, June 26, 2013

  Actual Average Record
Temperature  
Mean Temperature 90 °F -  
Max Temperature 100 °F 91 °F 106 °F (2012)
Min Temperature 80 °F 73 °F 71 °F (1997)
Cooling Degree Days 25    
Growing Degree Days 40 (Base 50)    
Moisture  
Dew Point 75 °F    
Average Humidity 71    
Maximum Humidity 85    
Minimum Humidity 38    
Precipitation  
Precipitation 0.00 in - - ()
Sea Level Pressure  
Sea Level Pressure 29.92 in    
Wind  
Wind Speed 14 mph (SSE)    
Max Wind Speed 22 mph    
Max Gust Speed 32 mph    
Visibility 10 miles    
Events      
Averages and records for this station are not official NWS values.
T = Trace of Precipitation, MM = Missing Value Source: NWS Daily Summary

Daily Weather History Graph

Daily Weather History Graph

Search for Another Location

Airport:

Trip Planner

Search our weather history database for the weather conditions in past years. The results will help you decide how hot, cold, wet, or windy it might be!

Date:

Astronomy

Jun. 26, 2013 Rise Set
Actual Time 6:37 AM CDT 8:30 PM CDT
Civil Twilight 6:11 AM CDT 8:56 PM CDT
Nautical Twilight 5:39 AM CDT 9:28 PM CDT
Astronomical Twilight 5:05 AM CDT 10:02 PM CDT
Moon 11:18 PM CDT (6/26) 10:11 AM CDT (6/26)
Length of Visible Light 14h 45m
Length of Day
13h 52m
Waning Gibbous, 85% of the Moon is Illuminated
Jun 26
Waning Gibbous
Jun 29
Last Quarter
Jul 8
New
Jul 15
First Quarter
Jul 22
Full

Hourly Weather History & Observations

Time (CDT) Temp. Heat Index Dew Point Humidity Pressure Visibility Wind Dir Wind Speed Gust Speed Precip Events Conditions
12:56 AM 81.0 °F 87.3 °F 75.9 °F 85% 29.93 in 10.0 mi SSE 13.8 mph - N/A   Clear
1:19 AM 82.4 °F 89.5 °F 75.2 °F 79% 29.94 in 10.0 mi SSE 15.0 mph - N/A   Mostly Cloudy
1:56 AM 82.0 °F 89.4 °F 75.9 °F 82% 29.94 in 10.0 mi SSE 15.0 mph - N/A   Mostly Cloudy
2:56 AM 82.0 °F 89.4 °F 75.9 °F 82% 29.93 in 10.0 mi SSE 9.2 mph - N/A   Overcast
3:56 AM 82.0 °F 89.4 °F 75.9 °F 82% 29.93 in 10.0 mi SSE 10.4 mph - N/A   Overcast
4:53 AM 80.6 °F 86.2 °F 75.2 °F 84% 29.92 in 10.0 mi South 12.7 mph - N/A   Scattered Clouds
4:56 AM 81.0 °F 87.3 °F 75.9 °F 85% 29.91 in 10.0 mi South 12.7 mph - N/A   Scattered Clouds
5:51 AM 80.6 °F 86.2 °F 75.2 °F 84% 29.92 in 10.0 mi South 11.5 mph - N/A   Mostly Cloudy
5:56 AM 81.0 °F 87.3 °F 75.9 °F 85% 29.92 in 10.0 mi SSE 12.7 mph - N/A   Mostly Cloudy
6:24 AM 80.6 °F 86.2 °F 75.2 °F 84% 29.93 in 10.0 mi SSE 10.4 mph - N/A   Scattered Clouds
6:32 AM 80.6 °F 86.2 °F 75.2 °F 84% 29.93 in 10.0 mi SSE 10.4 mph - N/A   Mostly Cloudy
6:56 AM 81.0 °F 87.3 °F 75.9 °F 85% 29.92 in 10.0 mi SSE 12.7 mph - N/A   Scattered Clouds
7:56 AM 82.9 °F 91.8 °F 77.0 °F 82% 29.93 in 10.0 mi SSE 12.7 mph - N/A   Scattered Clouds
8:36 AM 84.2 °F 94.1 °F 77.0 °F 79% 29.94 in 10.0 mi SSE 13.8 mph - N/A   Mostly Cloudy
8:56 AM 87.1 °F 97.3 °F 75.9 °F 69% 29.93 in 10.0 mi SSE 17.3 mph 24.2 mph N/A   Scattered Clouds
9:35 AM 87.8 °F 97.6 °F 75.2 °F 66% 29.95 in 10.0 mi South 16.1 mph 26.5 mph N/A   Mostly Cloudy
9:56 AM 87.1 °F 96.3 °F 75.0 °F 67% 29.94 in 10.0 mi South 16.1 mph - N/A   Scattered Clouds
10:56 AM 93.9 °F 104.0 °F 73.9 °F 52% 29.94 in 10.0 mi SSE 18.4 mph 27.6 mph N/A   Scattered Clouds
11:56 AM 96.1 °F 104.9 °F 72.0 °F 46% 29.93 in 10.0 mi South 16.1 mph 24.2 mph N/A   Partly Cloudy
12:56 PM 100.6 °F 108.9 °F 71.1 °F 38% 29.91 in 10.0 mi SE 16.1 mph 27.6 mph N/A   Scattered Clouds
1:56 PM 98.1 °F 112.1 °F 75.9 °F 49% 29.91 in 10.0 mi ESE 16.1 mph 25.3 mph N/A   Mostly Cloudy
2:56 PM 99.0 °F 111.8 °F 75.0 °F 46% 29.89 in 10.0 mi ESE 20.7 mph 27.6 mph N/A   Mostly Cloudy
3:56 PM 99.0 °F 110.9 °F 73.9 °F 45% 29.88 in 10.0 mi SE 19.6 mph 27.6 mph N/A   Mostly Cloudy
4:56 PM 97.0 °F 107.0 °F 73.0 °F 46% 29.87 in 10.0 mi SE 18.4 mph 28.8 mph N/A   Mostly Cloudy
5:56 PM 93.0 °F 103.2 °F 73.9 °F 54% 29.88 in 10.0 mi SE 20.7 mph 28.8 mph N/A   Mostly Cloudy
6:56 PM 90.0 °F 100.2 °F 75.0 °F 61% 29.88 in 10.0 mi SE 21.9 mph 32.2 mph N/A   Scattered Clouds
7:56 PM 86.0 °F 95.1 °F 75.0 °F 70% 29.88 in 10.0 mi SE 20.7 mph 29.9 mph N/A   Scattered Clouds
8:56 PM 84.0 °F 92.6 °F 75.9 °F 76% 29.91 in 10.0 mi SE 16.1 mph 26.5 mph N/A   Partly Cloudy
9:56 PM 82.9 °F 90.8 °F 75.9 °F 79% 29.92 in 10.0 mi SE 17.3 mph 24.2 mph N/A   Partly Cloudy
10:56 PM 82.0 °F 89.4 °F 75.9 °F 82% 29.94 in 10.0 mi SSE 16.1 mph 23.0 mph N/A   Partly Cloudy
11:56 PM 81.0 °F 87.3 °F 75.9 °F 85% 29.96 in 10.0 mi SSE 13.8 mph - N/A   Partly Cloudy